| time (UTC) | temp F | wind direction | speed MPH | gust MPH | rain 1hr in | rain 24hr in | rain mn in | humidity % | barometer mb |
| 20260901060009 | 58 | 250 | 10.0 | 11.0 | 0.00 | 0.00 | 0.00 | 85 | 1021.9 |
| 20260901055508 | 58 | 245 | 9.0 | 10.0 | 0.00 | 0.00 | 0.00 | 85 | 1021.7 |
| 20260901055008 | 57 | 254 | 10.0 | 12.0 | 0.00 | 0.00 | 0.00 | 85 | 1021.6 |
| 20260901054507 | 58 | 256 | 10.0 | 14.0 | 0.00 | 0.00 | 0.00 | 85 | 1021.8 |
| 20260901054008 | 58 | 291 | 3.0 | 4.0 | 0.00 | 0.00 | 0.00 | 85 | 1021.5 |
| 20260901053507 | 58 | 280 | 5.0 | 10.0 | 0.00 | 0.00 | 0.00 | 85 | 1021.6 |
| 20260901053009 | 58 | 248 | 8.0 | 13.0 | 0.00 | 0.00 | 0.00 | 84 | 1021.5 |
| 20260901052507 | 58 | 233 | 8.0 | 14.0 | 0.00 | 0.00 | 0.00 | 85 | 1021.3 |
| 20260901052007 | 57 | 237 | 6.0 | 6.0 | 0.00 | 0.00 | 0.00 | 85 | 1021.3 |
| 20260901051507 | 57 | 249 | 10.0 | 13.0 | 0.00 | 0.00 | 0.00 | 85 | 1021.2 |
| 20260901051007 | 57 | 236 | 8.0 | 10.0 | 0.00 | 0.00 | 0.00 | 85 | 1021.2 |
| 20260901050507 | 57 | 240 | 13.0 | 17.0 | 0.00 | 0.00 | 0.00 | 85 | 1021.2 |
| 20260901050009 | 57 | 245 | 11.0 | 15.0 | 0.00 | 0.00 | 0.00 | 85 | 1021.2 |
| 20260901045507 | 57 | 230 | 13.0 | 16.0 | 0.00 | 0.00 | 0.00 | 85 | 1021.1 |
| 20260901045010 | 57 | 248 | 16.0 | 18.0 | 0.00 | 0.00 | 0.00 | 84 | 1021.1 |
| 20260901044507 | 58 | 242 | 17.0 | 21.0 | 0.00 | 0.00 | 0.00 | 84 | 1021.0 |
| 20260901044008 | 57 | 240 | 14.0 | 18.0 | 0.00 | 0.00 | 0.00 | 84 | 1020.9 |
| 20260901043507 | 57 | 248 | 15.0 | 18.0 | 0.00 | 0.00 | 0.00 | 85 | 1020.8 |
| 20260901043008 | 57 | 245 | 13.0 | 14.0 | 0.00 | 0.00 | 0.00 | 84 | 1021.0 |
| 20260901042507 | 58 | 249 | 14.0 | 17.0 | 0.00 | 0.00 | 0.00 | 84 | 1020.9 |
| 20260901042008 | 58 | 254 | 12.0 | 15.0 | 0.00 | 0.00 | 0.00 | 83 | 1021.1 |
| 20260901041507 | 58 | 241 | 14.0 | 16.0 | 0.00 | 0.00 | 0.00 | 83 | 1021.0 |
| 20260901041007 | 58 | 233 | 8.0 | 15.0 | 0.00 | 0.00 | 0.00 | 83 | 1020.9 |
| 20260901040508 | 58 | 252 | 14.0 | 16.0 | 0.00 | 0.00 | 0.00 | 83 | 1020.8 |
| 20260901040008 | 58 | 238 | 14.0 | 15.0 | 0.00 | 0.00 | 0.00 | 83 | 1020.7 |
| 20260901035508 | 58 | 251 | 15.0 | 18.0 | 0.00 | 0.00 | 0.00 | 83 | 1021.0 |
| 20260901035007 | 58 | 246 | 13.0 | 17.0 | 0.00 | 0.00 | 0.00 | 83 | 1020.7 |
| 20260901034508 | 58 | 252 | 14.0 | 15.0 | 0.00 | 0.00 | 0.00 | 83 | 1020.7 |
| 20260901034008 | 58 | 239 | 9.0 | 13.0 | 0.00 | 0.00 | 0.00 | 82 | 1020.9 |
| 20260901033507 | 58 | 224 | 7.0 | 12.0 | 0.00 | 0.00 | 0.00 | 82 | 1020.8 |
| 20260901033007 | 58 | 263 | 9.0 | 12.0 | 0.00 | 0.00 | 0.00 | 82 | 1020.8 |
| 20260901032508 | 58 | 261 | 8.0 | 13.0 | 0.00 | 0.00 | 0.00 | 82 | 1021.0 |
| 20260901032007 | 58 | 246 | 8.0 | 14.0 | 0.00 | 0.00 | 0.00 | 82 | 1020.9 |
| 20260901031508 | 58 | 238 | 12.0 | 12.0 | 0.00 | 0.00 | 0.00 | 82 | 1020.7 |
| 20260901031007 | 58 | 231 | 10.0 | 11.0 | 0.00 | 0.00 | 0.00 | 83 | 1020.8 |
| 20260901030508 | 58 | 238 | 11.0 | 12.0 | 0.00 | 0.00 | 0.00 | 82 | 1020.7 |
| 20260901030008 | 58 | 252 | 8.0 | 16.0 | 0.00 | 0.00 | 0.00 | 82 | 1020.8 |
| 20260901025507 | 59 | 253 | 13.0 | 14.0 | 0.00 | 0.00 | 0.00 | 82 | 1020.9 |
| 20260901025008 | 59 | 247 | 16.0 | 16.0 | 0.00 | 0.00 | 0.00 | 81 | 1020.8 |
| 20260901024508 | 59 | 251 | 13.0 | 14.0 | 0.00 | 0.00 | 0.00 | 81 | 1020.7 |
| 20260901024007 | 59 | 256 | 16.0 | 18.0 | 0.00 | 0.00 | 0.00 | 80 | 1020.6 |
| 20260901023508 | 59 | 248 | 14.0 | 15.0 | 0.00 | 0.00 | 0.00 | 80 | 1020.6 |
| 20260901023007 | 59 | 261 | 8.0 | 14.0 | 0.00 | 0.00 | 0.00 | 80 | 1020.7 |
| 20260901022507 | 59 | 236 | 13.0 | 14.0 | 0.00 | 0.00 | 0.00 | 80 | 1020.7 |
| 20260901022007 | 59 | 245 | 10.0 | 12.0 | 0.00 | 0.00 | 0.00 | 79 | 1020.4 |
| 20260901021507 | 59 | 236 | 7.0 | 10.0 | 0.00 | 0.00 | 0.00 | 78 | 1020.7 |
| 20260901021007 | 60 | 250 | 14.0 | 18.0 | 0.00 | 0.00 | 0.00 | 77 | 1020.4 |
| 20260901020507 | 60 | 247 | 12.0 | 14.0 | 0.00 | 0.00 | 0.00 | 77 | 1020.6 |
| 20260901020008 | 60 | 245 | 8.0 | 12.0 | 0.00 | 0.00 | 0.00 | 76 | 1020.4 |
| 20260901015508 | 60 | 237 | 8.0 | 12.0 | 0.00 | 0.00 | 0.00 | 76 | 1020.4 |
| 20260901015007 | 60 | 258 | 8.0 | 10.0 | 0.00 | 0.00 | 0.00 | 75 | 1020.5 |
| 20260901014508 | 60 | 249 | 13.0 | 14.0 | 0.00 | 0.00 | 0.00 | 75 | 1020.5 |
| 20260901014008 | 60 | 258 | 12.0 | 13.0 | 0.00 | 0.00 | 0.00 | 74 | 1020.5 |
| 20260901013507 | 60 | 243 | 10.0 | 13.0 | 0.00 | 0.00 | 0.00 | 74 | 1020.5 |
| 20260901013008 | 61 | 250 | 8.0 | 13.0 | 0.00 | 0.00 | 0.00 | 73 | 1020.4 |
| 20260901012507 | 61 | 240 | 9.0 | 11.0 | 0.00 | 0.00 | 0.00 | 73 | 1020.3 |
| 20260901012008 | 61 | 233 | 8.0 | 11.0 | 0.00 | 0.00 | 0.00 | 73 | 1020.3 |
| 20260901011509 | 61 | 240 | 11.0 | 14.0 | 0.00 | 0.00 | 0.00 | 73 | 1020.3 |
| 20260901011008 | 61 | 219 | 8.0 | 14.0 | 0.00 | 0.00 | 0.00 | 72 | 1020.3 |
| 20260901010508 | 61 | 244 | 10.0 | 16.0 | 0.00 | 0.00 | 0.00 | 71 | 1020.3 |
| 20260901010007 | 62 | 259 | 13.0 | 14.0 | 0.00 | 0.00 | 0.00 | 71 | 1020.1 |
| 20260901005508 | 62 | 254 | 4.0 | 14.0 | 0.00 | 0.00 | 0.00 | 70 | 1020.3 |
| 20260901005007 | 62 | 230 | 13.0 | 17.0 | 0.00 | 0.00 | 0.00 | 70 | 1020.1 |
| 20260901004508 | 62 | 233 | 16.0 | 17.0 | 0.00 | 0.00 | 0.00 | 70 | 1020.4 |
| 20260901004007 | 62 | 237 | 16.0 | 25.0 | 0.00 | 0.00 | 0.00 | 69 | 1020.2 |
| 20260901003507 | 62 | 248 | 19.0 | 21.0 | 0.00 | 0.00 | 0.00 | 69 | 1020.2 |
| 20260901003007 | 62 | 245 | 12.0 | 14.0 | 0.00 | 0.00 | 0.00 | 69 | 1020.0 |
| 20260901002508 | 62 | 231 | 15.0 | 18.0 | 0.00 | 0.00 | 0.00 | 70 | 1020.2 |
| 20260901002008 | 62 | 235 | 11.0 | 17.0 | 0.00 | 0.00 | 0.00 | 70 | 1020.1 |
| 20260901001507 | 62 | 248 | 13.0 | 21.0 | 0.00 | 0.00 | 0.00 | 70 | 1020.3 |
| 20260901001008 | 62 | 233 | 16.0 | 20.0 | 0.00 | 0.00 | 0.00 | 70 | 1020.1 |
| 20260901000507 | 61 | 237 | 14.0 | 17.0 | 0.00 | 0.00 | 0.00 | 71 | 1020.3 |
| 20260901000008 | 61 | 255 | 9.0 | 16.0 | 0.00 | 0.00 | 0.00 | 70 | 1020.4 |
| 20260831235508 | 62 | 259 | 17.0 | 18.0 | 0.00 | 0.00 | 0.00 | 69 | 1020.3 |
| 20260831235007 | 62 | 260 | 14.0 | 14.0 | 0.00 | 0.00 | 0.00 | 69 | 1020.3 |
| 20260831234508 | 61 | 244 | 13.0 | 20.0 | 0.00 | 0.00 | 0.00 | 69 | 1020.2 |
| 20260831234008 | 61 | 248 | 15.0 | 17.0 | 0.00 | 0.00 | 0.00 | 69 | 1020.3 |
| 20260831233508 | 62 | 251 | 12.0 | 13.0 | 0.00 | 0.00 | 0.00 | 69 | 1020.2 |
| 20260831233008 | 62 | 254 | 16.0 | 18.0 | 0.00 | 0.00 | 0.00 | 68 | 1020.1 |
| 20260831232508 | 62 | 266 | 11.0 | 14.0 | 0.00 | 0.00 | 0.00 | 67 | 1020.1 |
| 20260831232007 | 62 | 252 | 15.0 | 19.0 | 0.00 | 0.00 | 0.00 | 66 | 1020.0 |
| 20260831231508 | 62 | 252 | 14.0 | 17.0 | 0.00 | 0.00 | 0.00 | 66 | 1020.1 |
| 20260831231008 | 62 | 247 | 11.0 | 13.0 | 0.00 | 0.00 | 0.00 | 65 | 1020.0 |
| 20260831230508 | 63 | 249 | 18.0 | 23.0 | 0.00 | 0.00 | 0.00 | 64 | 1020.1 |
| 20260831230008 | 63 | 260 | 19.0 | 21.0 | 0.00 | 0.00 | 0.00 | 65 | 1020.1 |
| 20260831225508 | 63 | 244 | 19.0 | 21.0 | 0.00 | 0.00 | 0.00 | 64 | 1019.9 |
| 20260831225007 | 63 | 262 | 18.0 | 21.0 | 0.00 | 0.00 | 0.00 | 63 | 1020.0 |
| 20260831224508 | 64 | 237 | 16.0 | 22.0 | 0.00 | 0.00 | 0.00 | 62 | 1020.1 |
| 20260831224007 | 64 | 248 | 11.0 | 14.0 | 0.00 | 0.00 | 0.00 | 61 | 1019.9 |
| 20260831223507 | 64 | 248 | 8.0 | 10.0 | 0.00 | 0.00 | 0.00 | 61 | 1020.0 |
| 20260831223008 | 64 | 251 | 9.0 | 13.0 | 0.00 | 0.00 | 0.00 | 60 | 1020.0 |
| 20260831222506 | 64 | 242 | 19.0 | 21.0 | 0.00 | 0.00 | 0.00 | 60 | 1019.8 |
| 20260831222007 | 64 | 242 | 12.0 | 18.0 | 0.00 | 0.00 | 0.00 | 61 | 1020.0 |
| 20260831221508 | 64 | 259 | 10.0 | 15.0 | 0.00 | 0.00 | 0.00 | 62 | 1019.9 |
| 20260831221008 | 64 | 273 | 8.0 | 17.0 | 0.00 | 0.00 | 0.00 | 61 | 1019.7 |
| 20260831220008 | 65 | 256 | 19.0 | 19.0 | 0.00 | 0.00 | 0.00 | 60 | 1019.7 |
| 20260831215507 | 65 | 247 | 16.0 | 20.0 | 0.00 | 0.00 | 0.00 | 59 | 1019.5 |
| 20260831215007 | 66 | 243 | 8.0 | 21.0 | 0.00 | 0.00 | 0.00 | 59 | 1019.6 |
| 20260831214508 | 65 | 245 | 20.0 | 21.0 | 0.00 | 0.00 | 0.00 | 59 | 1019.5 |
| 20260831214008 | 65 | 244 | 18.0 | 18.0 | 0.00 | 0.00 | 0.00 | 60 | 1019.6 |
| 20260831213508 | 65 | 245 | 17.0 | 19.0 | 0.00 | 0.00 | 0.00 | 60 | 1019.4 |
| 20260831213008 | 65 | 250 | 9.0 | 13.0 | 0.00 | 0.00 | 0.00 | 61 | 1019.6 |
| 20260831212507 | 65 | 254 | 16.0 | 18.0 | 0.00 | 0.00 | 0.00 | 62 | 1019.5 |
| 20260831212007 | 65 | 249 | 16.0 | 17.0 | 0.00 | 0.00 | 0.00 | 61 | 1019.2 |
| 20260831211507 | 66 | 242 | 14.0 | 15.0 | 0.00 | 0.00 | 0.00 | 60 | 1019.2 |
| 20260831211007 | 66 | 243 | 17.0 | 20.0 | 0.00 | 0.00 | 0.00 | 61 | 1019.2 |
| 20260831210508 | 65 | 249 | 12.0 | 14.0 | 0.00 | 0.00 | 0.00 | 62 | 1019.3 |
| 20260831210007 | 65 | 245 | 10.0 | 15.0 | 0.00 | 0.00 | 0.00 | 62 | 1019.0 |
| 20260831205508 | 65 | 242 | 13.0 | 16.0 | 0.00 | 0.00 | 0.00 | 63 | 1019.1 |
| 20260831205007 | 65 | 236 | 14.0 | 14.0 | 0.00 | 0.00 | 0.00 | 62 | 1019.1 |
| 20260831204508 | 66 | 236 | 10.0 | 12.0 | 0.00 | 0.00 | 0.00 | 62 | 1019.0 |
| 20260831204008 | 66 | 229 | 9.0 | 9.0 | 0.00 | 0.00 | 0.00 | 62 | 1019.1 |
| 20260831203508 | 65 | 213 | 7.0 | 9.0 | 0.00 | 0.00 | 0.00 | 63 | 1018.9 |
| 20260831203008 | 65 | 217 | 10.0 | 12.0 | 0.00 | 0.00 | 0.00 | 64 | 1019.1 |
| 20260831202507 | 65 | 200 | 7.0 | 9.0 | 0.00 | 0.00 | 0.00 | 64 | 1019.0 |
| 20260831202008 | 65 | 213 | 9.0 | 10.0 | 0.00 | 0.00 | 0.00 | 63 | 1019.0 |
| 20260831201507 | 66 | 234 | 12.0 | 12.0 | 0.00 | 0.00 | 0.00 | 62 | 1018.9 |
| 20260831201008 | 66 | 218 | 8.0 | 10.0 | 0.00 | 0.00 | 0.00 | 61 | 1018.7 |
| 20260831200508 | 66 | 220 | 11.0 | 12.0 | 0.00 | 0.00 | 0.00 | 60 | 1018.7 |
| 20260831200008 | 66 | 221 | 7.0 | 10.0 | 0.00 | 0.00 | 0.00 | 62 | 1018.6 |
| 20260831195507 | 66 | 215 | 14.0 | 15.0 | 0.00 | 0.00 | 0.00 | 62 | 1018.6 |
| 20260831195007 | 66 | 184 | 7.0 | 13.0 | 0.00 | 0.00 | 0.00 | 62 | 1018.6 |
| 20260831194508 | 66 | 209 | 13.0 | 14.0 | 0.00 | 0.00 | 0.00 | 61 | 1018.7 |
| 20260831194008 | 66 | 210 | 11.0 | 13.0 | 0.00 | 0.00 | 0.00 | 61 | 1018.5 |
| 20260831193508 | 66 | 210 | 10.0 | 13.0 | 0.00 | 0.00 | 0.00 | 62 | 1018.6 |
| 20260831193008 | 66 | 196 | 8.0 | 13.0 | 0.00 | 0.00 | 0.00 | 61 | 1018.6 |
| 20260831192508 | 67 | 195 | 7.0 | 12.0 | 0.00 | 0.00 | 0.00 | 60 | 1018.5 |
| 20260831192008 | 67 | 211 | 8.0 | 13.0 | 0.00 | 0.00 | 0.00 | 59 | 1018.6 |
| 20260831191508 | 67 | 227 | 7.0 | 11.0 | 0.00 | 0.00 | 0.00 | 58 | 1018.7 |
| 20260831191007 | 68 | 196 | 7.0 | 9.0 | 0.00 | 0.00 | 0.00 | 58 | 1018.4 |
| 20260831190508 | 68 | 224 | 11.0 | 14.0 | 0.00 | 0.00 | 0.00 | 56 | 1018.5 |
| 20260831190008 | 68 | 229 | 10.0 | 11.0 | 0.00 | 0.00 | 0.00 | 56 | 1018.3 |
| 20260831185508 | 69 | 233 | 9.0 | 10.0 | 0.00 | 0.00 | 0.00 | 56 | 1018.6 |
| 20260831185007 | 69 | 238 | 9.0 | 11.0 | 0.00 | 0.00 | 0.00 | 56 | 1018.3 |
| 20260831184508 | 68 | 234 | 10.0 | 12.0 | 0.00 | 0.00 | 0.00 | 56 | 1018.3 |
| 20260831184008 | 69 | 220 | 8.0 | 10.0 | 0.00 | 0.00 | 0.00 | 56 | 1018.2 |
| 20260831183508 | 69 | 246 | 10.0 | 13.0 | 0.00 | 0.00 | 0.00 | 55 | 1018.4 |
| 20260831183008 | 69 | 238 | 10.0 | 12.0 | 0.00 | 0.00 | 0.00 | 56 | 1018.3 |
| 20260831182508 | 69 | 249 | 8.0 | 11.0 | 0.00 | 0.00 | 0.00 | 56 | 1018.2 |
| 20260831182008 | 69 | 242 | 5.0 | 10.0 | 0.00 | 0.00 | 0.00 | 56 | 1018.2 |
| 20260831181507 | 69 | 247 | 8.0 | 11.0 | 0.00 | 0.00 | 0.00 | 57 | 1018.4 |
| 20260831181008 | 69 | 238 | 10.0 | 12.0 | 0.00 | 0.00 | 0.00 | 56 | 1018.1 |
| 20260831180508 | 69 | 252 | 11.0 | 12.0 | 0.00 | 0.00 | 0.00 | 56 | 1018.0 |
| 20260831180008 | 69 | 245 | 10.0 | 12.0 | 0.00 | 0.00 | 0.00 | 56 | 1018.2 |
| 20260831175507 | 69 | 241 | 8.0 | 10.0 | 0.00 | 0.00 | 0.00 | 56 | 1018.1 |
| 20260831175008 | 69 | 235 | 8.0 | 11.0 | 0.00 | 0.00 | 0.00 | 55 | 1018.0 |
| 20260831174508 | 70 | 243 | 8.0 | 10.0 | 0.00 | 0.00 | 0.00 | 55 | 1018.0 |
| 20260831174008 | 69 | 239 | 8.0 | 9.0 | 0.00 | 0.00 | 0.00 | 56 | 1017.7 |
| 20260831173507 | 70 | 250 | 6.0 | 7.0 | 0.00 | 0.00 | 0.00 | 55 | 1017.9 |
| 20260831173008 | 70 | 249 | 9.0 | 12.0 | 0.00 | 0.00 | 0.00 | 54 | 1017.8 |
| 20260831172507 | 70 | 259 | 7.0 | 12.0 | 0.00 | 0.00 | 0.00 | 53 | 1017.8 |
| 20260831172007 | 70 | 249 | 10.0 | 12.0 | 0.00 | 0.00 | 0.00 | 52 | 1018.2 |
| 20260831171507 | 71 | 263 | 10.0 | 12.0 | 0.00 | 0.00 | 0.00 | 52 | 1017.6 |
| 20260831171008 | 71 | 257 | 11.0 | 11.0 | 0.00 | 0.00 | 0.00 | 52 | 1017.7 |
| 20260831170508 | 71 | 257 | 12.0 | 14.0 | 0.00 | 0.00 | 0.00 | 51 | 1017.6 |
| 20260831170008 | 71 | 260 | 9.0 | 13.0 | 0.00 | 0.00 | 0.00 | 51 | 1017.7 |
| 20260831165507 | 71 | 246 | 10.0 | 10.0 | 0.00 | 0.00 | 0.00 | 51 | 1017.8 |
| 20260831165008 | 72 | 257 | 12.0 | 12.0 | 0.00 | 0.00 | 0.00 | 50 | 1017.5 |
| 20260831164508 | 72 | 252 | 14.0 | 17.0 | 0.00 | 0.00 | 0.00 | 50 | 1017.9 |
| 20260831164008 | 72 | 261 | 7.0 | 12.0 | 0.00 | 0.00 | 0.00 | 50 | 1017.8 |
| 20260831163508 | 72 | 282 | 12.0 | 18.0 | 0.00 | 0.00 | 0.00 | 50 | 1017.9 |
| 20260831163009 | 30 | 0 | 0.0 | 0.0 | 0.00 | 0.00 | 0.00 | 100 | 1017.8 |
| 20260831162507 | 30 | 0 | 0.0 | 0.0 | 0.00 | 0.00 | 0.00 | 100 | 1017.8 |
| 20260831162007 | 30 | 0 | 0.0 | 0.0 | 0.00 | 0.00 | 0.00 | 100 | 1017.8 |
| 20260831161507 | 30 | 0 | 0.0 | 0.0 | 0.00 | 0.00 | 0.00 | 100 | 1017.8 |
| 20260831161007 | 30 | 0 | 0.0 | 0.0 | 0.00 | 0.00 | 0.00 | 100 | 1018.1 |
| 20260831160508 | 30 | 0 | 0.0 | 0.0 | 0.00 | 0.00 | 0.00 | 100 | 1017.7 |
| 20260831160008 | 30 | 0 | 0.0 | 0.0 | 0.00 | 0.00 | 0.00 | 100 | 1017.8 |
| 20260831155507 | 73 | 248 | 7.0 | 10.0 | 0.00 | 0.00 | 0.00 | 51 | 1017.9 |
| 20260831155007 | 73 | 248 | 7.0 | 10.0 | 0.00 | 0.00 | 0.00 | 51 | 1018.1 |
| 20260831154507 | 73 | 252 | 9.0 | 14.0 | 0.00 | 0.00 | 0.00 | 51 | 1018.0 |
| 20260831154007 | 73 | 282 | 14.0 | 16.0 | 0.00 | 0.00 | 0.00 | 50 | 1017.8 |
| 20260831153508 | 73 | 288 | 7.0 | 11.0 | 0.00 | 0.00 | 0.00 | 50 | 1018.1 |
| 20260831153007 | 73 | 258 | 13.0 | 18.0 | 0.00 | 0.00 | 0.00 | 49 | 1017.7 |
| 20260831152507 | 73 | 243 | 15.0 | 17.0 | 0.00 | 0.00 | 0.00 | 50 | 1017.9 |
| 20260831152008 | 73 | 246 | 9.0 | 11.0 | 0.00 | 0.00 | 0.00 | 52 | 1018.2 |
| 20260831151507 | 73 | 264 | 8.0 | 8.0 | 0.00 | 0.00 | 0.00 | 52 | 1018.0 |
| 20260831151007 | 73 | 284 | 9.0 | 14.0 | 0.00 | 0.00 | 0.00 | 51 | 1018.0 |
| 20260831150507 | 72 | 267 | 10.0 | 13.0 | 0.00 | 0.00 | 0.00 | 52 | 1018.2 |
| 20260831150008 | 73 | 294 | 8.0 | 12.0 | 0.00 | 0.00 | 0.00 | 51 | 1018.0 |
| 20260831145507 | 73 | 262 | 9.0 | 14.0 | 0.00 | 0.00 | 0.00 | 53 | 1018.2 |
| 20260831145008 | 73 | 281 | 13.0 | 18.0 | 0.00 | 0.00 | 0.00 | 52 | 1018.2 |
| 20260831144508 | 73 | 276 | 16.0 | 19.0 | 0.00 | 0.00 | 0.00 | 51 | 1018.3 |
| 20260831144007 | 73 | 231 | 12.0 | 20.0 | 0.00 | 0.00 | 0.00 | 52 | 1018.4 |
| 20260831143508 | 72 | 272 | 17.0 | 21.0 | 0.00 | 0.00 | 0.00 | 51 | 1018.3 |
| 20260831143007 | 72 | 265 | 20.0 | 22.0 | 0.00 | 0.00 | 0.00 | 52 | 1018.3 |
| 20260831142508 | 73 | 221 | 12.0 | 19.0 | 0.00 | 0.00 | 0.00 | 52 | 1018.1 |
| 20260831142008 | 73 | 250 | 11.0 | 13.0 | 0.00 | 0.00 | 0.00 | 52 | 1018.2 |
| 20260831141507 | 73 | 258 | 14.0 | 16.0 | 0.00 | 0.00 | 0.00 | 51 | 1018.2 |
| 20260831141007 | 72 | 273 | 19.0 | 24.0 | 0.00 | 0.00 | 0.00 | 51 | 1018.0 |
| 20260831140507 | 73 | 269 | 14.0 | 14.0 | 0.00 | 0.00 | 0.00 | 51 | 1018.0 |
| 20260831140007 | 73 | 235 | 18.0 | 21.0 | 0.00 | 0.00 | 0.00 | 52 | 1018.1 |
| 20260831135508 | 73 | 290 | 12.0 | 15.0 | 0.00 | 0.00 | 0.00 | 54 | 1018.2 |
| 20260831135008 | 72 | 295 | 9.0 | 11.0 | 0.00 | 0.00 | 0.00 | 56 | 1018.1 |
| 20260831134507 | 71 | 276 | 8.0 | 12.0 | 0.00 | 0.00 | 0.00 | 59 | 1018.0 |
| 20260831134008 | 71 | 276 | 8.0 | 12.0 | 0.00 | 0.00 | 0.00 | 59 | 1018.1 |
| 20260831133508 | 71 | 273 | 10.0 | 11.0 | 0.00 | 0.00 | 0.00 | 58 | 1018.2 |
| 20260831133007 | 71 | 290 | 7.0 | 10.0 | 0.00 | 0.00 | 0.00 | 59 | 1017.9 |
| 20260831132508 | 70 | 269 | 13.0 | 15.0 | 0.00 | 0.00 | 0.00 | 61 | 1018.3 |
| 20260831132007 | 70 | 285 | 6.0 | 10.0 | 0.00 | 0.00 | 0.00 | 61 | 1018.1 |
| 20260831131507 | 70 | 270 | 9.0 | 12.0 | 0.00 | 0.00 | 0.00 | 61 | 1018.2 |
| 20260831131006 | 70 | 257 | 8.0 | 14.0 | 0.00 | 0.00 | 0.00 | 59 | 1018.2 |
| 20260831130508 | 70 | 262 | 8.0 | 12.0 | 0.00 | 0.00 | 0.00 | 59 | 1018.4 |
| 20260831130010 | 70 | 252 | 8.0 | 22.0 | 0.00 | 0.00 | 0.00 | 60 | 1018.1 |
| 20260831125508 | 69 | 254 | 13.0 | 16.0 | 0.00 | 0.00 | 0.00 | 60 | 1018.2 |
| 20260831125008 | 70 | 257 | 10.0 | 15.0 | 0.00 | 0.00 | 0.00 | 62 | 1018.2 |
| 20260831124507 | 70 | 232 | 8.0 | 13.0 | 0.00 | 0.00 | 0.00 | 61 | 1018.3 |
| 20260831124008 | 70 | 251 | 15.0 | 19.0 | 0.00 | 0.00 | 0.00 | 60 | 1018.1 |
| 20260831123507 | 70 | 252 | 10.0 | 13.0 | 0.00 | 0.00 | 0.00 | 61 | 1018.2 |
| 20260831123008 | 70 | 238 | 10.0 | 13.0 | 0.00 | 0.00 | 0.00 | 63 | 1018.2 |
| 20260831122507 | 70 | 238 | 8.0 | 14.0 | 0.00 | 0.00 | 0.00 | 61 | 1018.2 |
| 20260831122008 | 70 | 261 | 18.0 | 20.0 | 0.00 | 0.00 | 0.00 | 63 | 1018.2 |
| 20260831121508 | 70 | 263 | 4.0 | 6.0 | 0.00 | 0.00 | 0.00 | 67 | 1018.2 |
| 20260831121008 | 69 | 282 | 7.0 | 12.0 | 0.00 | 0.00 | 0.00 | 67 | 1018.1 |
| 20260831120508 | 69 | 278 | 14.0 | 14.0 | 0.00 | 0.00 | 0.00 | 66 | 1018.2 |
| 20260831120009 | 68 | 276 | 7.0 | 13.0 | 0.00 | 0.00 | 0.00 | 70 | 1018.2 |
| 20260831115507 | 67 | 272 | 12.0 | 15.0 | 0.00 | 0.00 | 0.00 | 70 | 1018.4 |
| 20260831115008 | 67 | 259 | 8.0 | 9.0 | 0.00 | 0.00 | 0.00 | 74 | 1018.3 |
| 20260831114508 | 67 | 267 | 9.0 | 11.0 | 0.00 | 0.00 | 0.00 | 74 | 1018.4 |
| 20260831114008 | 67 | 263 | 7.0 | 10.0 | 0.00 | 0.00 | 0.00 | 73 | 1018.2 |
| 20260831113507 | 67 | 239 | 3.0 | 7.0 | 0.00 | 0.00 | 0.00 | 71 | 1018.3 |
| 20260831113008 | 68 | 252 | 8.0 | 15.0 | 0.00 | 0.00 | 0.00 | 69 | 1018.1 |
| 20260831112508 | 67 | 272 | 11.0 | 14.0 | 0.00 | 0.00 | 0.00 | 70 | 1018.2 |
| 20260831112008 | 69 | 272 | 7.0 | 8.0 | 0.00 | 0.00 | 0.00 | 73 | 1018.2 |
| 20260831111508 | 67 | 277 | 6.0 | 10.0 | 0.00 | 0.00 | 0.00 | 75 | 1018.1 |
| 20260831111008 | 67 | 251 | 17.0 | 17.0 | 0.00 | 0.00 | 0.00 | 73 | 1018.3 |
| 20260831110507 | 68 | 262 | 4.0 | 10.0 | 0.00 | 0.00 | 0.00 | 75 | 1018.3 |
| 20260831110007 | 67 | 281 | 12.0 | 12.0 | 0.00 | 0.00 | 0.00 | 77 | 1018.3 |
| 20260831105507 | 66 | 235 | 12.0 | 14.0 | 0.00 | 0.00 | 0.00 | 79 | 1018.3 |
| 20260831105008 | 66 | 273 | 13.0 | 14.0 | 0.00 | 0.00 | 0.00 | 79 | 1018.3 |
| 20260831104508 | 66 | 240 | 6.0 | 14.0 | 0.00 | 0.00 | 0.00 | 82 | 1018.3 |
| 20260831104008 | 66 | 274 | 7.0 | 14.0 | 0.00 | 0.00 | 0.00 | 83 | 1018.3 |
| 20260831103507 | 65 | 280 | 7.0 | 7.0 | 0.00 | 0.00 | 0.00 | 85 | 1018.1 |
| 20260831103007 | 65 | 298 | 3.0 | 5.0 | 0.00 | 0.00 | 0.00 | 85 | 1018.2 |
| 20260831102508 | 65 | 275 | 13.0 | 14.0 | 0.00 | 0.00 | 0.00 | 86 | 1018.2 |
| 20260831102007 | 65 | 274 | 4.0 | 7.0 | 0.00 | 0.00 | 0.00 | 88 | 1018.4 |
| 20260831101508 | 64 | 257 | 6.0 | 10.0 | 0.00 | 0.00 | 0.00 | 89 | 1018.1 |
| 20260831101008 | 64 | 250 | 10.0 | 10.0 | 0.00 | 0.00 | 0.00 | 88 | 1018.1 |
| 20260831100507 | 64 | 261 | 7.0 | 9.0 | 0.00 | 0.00 | 0.00 | 90 | 1018.0 |
| 20260831100007 | 64 | 242 | 8.0 | 11.0 | 0.00 | 0.00 | 0.00 | 92 | 1018.2 |
| 20260831095508 | 63 | 207 | 4.0 | 6.0 | 0.00 | 0.00 | 0.00 | 93 | 1018.3 |
| 20260831095008 | 63 | 222 | 5.0 | 6.0 | 0.00 | 0.00 | 0.00 | 94 | 1018.2 |
| 20260831094508 | 62 | 223 | 9.0 | 9.0 | 0.00 | 0.00 | 0.00 | 95 | 1018.2 |
| 20260831094008 | 62 | 233 | 8.0 | 10.0 | 0.00 | 0.00 | 0.00 | 95 | 1018.1 |
| 20260831093507 | 62 | 230 | 10.0 | 13.0 | 0.00 | 0.00 | 0.00 | 96 | 1018.2 |
| 20260831093009 | 62 | 249 | 4.0 | 5.0 | 0.00 | 0.00 | 0.00 | 97 | 1018.0 |
| 20260831092509 | 61 | 232 | 6.0 | 8.0 | 0.00 | 0.00 | 0.00 | 97 | 1018.1 |
| 20260831092007 | 62 | 234 | 6.0 | 6.0 | 0.00 | 0.00 | 0.00 | 98 | 1018.1 |
| 20260831091507 | 61 | 248 | 7.0 | 10.0 | 0.00 | 0.00 | 0.00 | 98 | 1018.3 |
| 20260831091008 | 61 | 206 | 4.0 | 4.0 | 0.00 | 0.00 | 0.00 | 98 | 1018.0 |
| 20260831090508 | 60 | 193 | 5.0 | 8.0 | 0.00 | 0.00 | 0.00 | 99 | 1018.1 |
| 20260831090008 | 61 | 199 | 4.0 | 4.0 | 0.00 | 0.00 | 0.00 | 99 | 1018.2 |
| 20260831085507 | 61 | 190 | 2.0 | 4.0 | 0.00 | 0.00 | 0.00 | 99 | 1017.9 |
| 20260831085008 | 60 | 233 | 5.0 | 6.0 | 0.00 | 0.00 | 0.00 | 99 | 1018.1 |
| 20260831084507 | 61 | 153 | 2.0 | 2.0 | 0.00 | 0.00 | 0.00 | 99 | 1017.9 |
| 20260831084008 | 60 | 168 | 3.0 | 3.0 | 0.00 | 0.00 | 0.00 | 99 | 1017.9 |
| 20260831083508 | 60 | 227 | 4.0 | 4.0 | 0.00 | 0.00 | 0.00 | 99 | 1017.8 |
| 20260831083008 | 60 | 214 | 3.0 | 3.0 | 0.00 | 0.00 | 0.00 | 99 | 1017.6 |
| 20260831082507 | 59 | 238 | 4.0 | 4.0 | 0.00 | 0.00 | 0.00 | 99 | 1017.6 |
| 20260831082007 | 59 | 234 | 5.0 | 5.0 | 0.00 | 0.00 | 0.00 | 99 | 1017.5 |
| 20260831081507 | 59 | 228 | 6.0 | 6.0 | 0.00 | 0.00 | 0.00 | 99 | 1017.5 |
| 20260831081006 | 59 | 235 | 4.0 | 4.0 | 0.00 | 0.00 | 0.00 | 98 | 1017.4 |
| 20260831080508 | 59 | 256 | 5.0 | 5.0 | 0.00 | 0.00 | 0.00 | 98 | 1017.1 |
| 20260831080007 | 59 | 283 | 3.0 | 4.0 | 0.00 | 0.00 | 0.00 | 98 | 1017.0 |
| 20260831075507 | 59 | 273 | 1.0 | 2.0 | 0.00 | 0.00 | 0.00 | 98 | 1016.9 |
| 20260831075008 | 59 | 242 | 3.0 | 3.0 | 0.00 | 0.00 | 0.00 | 98 | 1017.3 |
| 20260831074508 | 59 | 269 | 0.0 | 0.0 | 0.00 | 0.00 | 0.00 | 98 | 1017.2 |
| 20260831074007 | 58 | 248 | 2.0 | 2.0 | 0.00 | 0.00 | 0.00 | 98 | 1016.9 |
| 20260831073508 | 58 | 256 | 0.0 | 0.0 | 0.00 | 0.00 | 0.00 | 98 | 1016.8 |
| 20260831073009 | 58 | 165 | 0.0 | 1.0 | 0.00 | 0.00 | 0.00 | 98 | 1017.0 |
| 20260831072508 | 58 | 266 | 1.0 | 2.0 | 0.00 | 0.00 | 0.00 | 98 | 1016.9 |
| 20260831072008 | 58 | 247 | 2.0 | 2.0 | 0.00 | 0.00 | 0.00 | 98 | 1017.1 |
| 20260831071508 | 58 | 247 | 3.0 | 4.0 | 0.00 | 0.00 | 0.00 | 98 | 1017.3 |
| 20260831071006 | 58 | 276 | 3.0 | 3.0 | 0.00 | 0.00 | 0.00 | 98 | 1017.3 |
| 20260831070507 | 58 | 254 | 2.0 | 3.0 | 0.00 | 0.00 | 0.00 | 98 | 1017.3 |
| 20260831065508 | 58 | 256 | 6.0 | 8.0 | 0.00 | 0.00 | 0.00 | 98 | 1017.6 |
| 20260831065008 | 58 | 279 | 10.0 | 11.0 | 0.00 | 0.00 | 0.00 | 97 | 1017.9 |
| 20260831064507 | 58 | 267 | 8.0 | 14.0 | 0.00 | 0.00 | 0.00 | 97 | 1018.0 |
| 20260831064007 | 58 | 272 | 13.0 | 17.0 | 0.00 | 0.00 | 0.00 | 97 | 1017.9 |
| 20260831063507 | 58 | 278 | 15.0 | 19.0 | 0.00 | 0.00 | 0.00 | 97 | 1017.6 |
| 20260831063008 | 58 | 293 | 12.0 | 14.0 | 0.00 | 0.00 | 0.00 | 96 | 1017.5 |
| 20260831062508 | 59 | 279 | 17.0 | 19.0 | 0.00 | 0.00 | 0.00 | 95 | 1017.9 |
| 20260831062007 | 59 | 293 | 22.0 | 29.0 | 0.00 | 0.00 | 0.00 | 93 | 1017.0 |
| 20260831061508 | 61 | 255 | 19.0 | 28.0 | 0.00 | 0.00 | 0.00 | 87 | 1016.5 |
| 20260831061008 | 63 | 210 | 6.0 | 8.0 | 0.00 | 0.00 | 0.00 | 79 | 1015.8 |
| 20260831060508 | 64 | 172 | 6.0 | 6.0 | 0.00 | 0.00 | 0.00 | 75 | 1015.6 |